Location: Krakow
(50.0212°N, 19.9423°E)
Time: 20:53:15
(UTC+02:00)

UWE-3 - Pass Details

Date: 29 April 2024
Orbit: 569 x 652 km, 97.8° (Epoch: 19 May)

Event Time Altitude Azimuth Distance (km) Brightness Sun altitude
Rises 04:38:12 0° 2° (N) 2,876 ? -6.7°
Reaches altitude 10° 04:40:48 10° 346° (NNW) 1,984 ? -6.3°
Maximum altitude 04:43:58 20° 298° (WNW) 1,434 ? -5.9°
Drops below altitude 10° 04:47:11 10° 251° (WSW) 2,011 ? -5.5°
Enters shadow 04:48:06 - 244° (WSW) 2,308 ? -5.3°
